QPF
0.05 0.06 0.05 0.04 0.04 0.03 0.04 0.07 0.09 0.07 0.07 0.06 0.04 0.05 0.07 0.06 0.06 0.03 0.02 0.04 0.04 0.04 0.03 0.02 0.02 0.03 0.04 0.05 0.05 0.06 0.07 0.08 0.08 0.09 0.09 0.08 0.08 0.10
0.05 0.05 0.05 0.03 0.02 0.02 0.03 0.05 0.08 0.08 0.08 0.06 0.07 0.07 0.08 0.07 0.06 0.05 0.06 0.05 0.04 0.04 0.03 0.03 0.02 0.02 0.02 0.02 0.02 0.02 0.03 0.04 0.05 0.07 0.08 0.08 0.08 0.07
0.06 0.06 0.05 0.04 0.04 0.03 0.04 0.06 0.07 0.08 0.07 0.06 0.05 0.05 0.05 0.05 0.06 0.05 0.05 0.05 0.05 0.04 0.04 0.04 0.03 0.03 0.02 0.02 0.01 0.01 0.01 0.02 0.03 0.05 0.06 0.05 0.06 0.07
0.07 0.08 0.07 0.06 0.05 0.04 0.04 0.05 0.06 0.07 0.07 0.06 0.06 0.05 0.06 0.05 0.05 0.05 0.03 0.04 0.06 0.06 0.06 0.05 0.04 0.03 0.02 0.02 0.02 0.01 0.01 0.01 0.01 0.02 0.03 0.04 0.04 0.04
0.07 0.06 0.06 0.07 0.06 0.05 0.04 0.04 0.06 0.06 0.08 0.07 0.06 0.07 0.06 0.05 0.07 0.07 0.06 0.07 0.04 0.03 0.03 0.04 0.03 0.03 0.03 0.02 0.02 0.02 0.01 0.01 0.01 0.01 0.01 0.02 0.03 0.04
0.07 0.06 0.06 0.07 0.07 0.05 0.04 0.04 0.06 0.07 0.07 0.07 0.06 0.06 0.05 0.05 0.07 0.07 0.08 0.07 0.04 0.02 0.03 0.04 0.03 0.03 0.02 0.01 0.01 0.01 0.01 0.02 0.01 0.01 0.01 0.01 0.01 0.01
0.05 0.06 0.07 0.08 0.07 0.05 0.04 0.04 0.06 0.06 0.07 0.06 0.05 0.05 0.05 0.06 0.07 0.07 0.08 0.08 0.06 0.05 0.05 0.05 0.06 0.04 0.03 0.02 0.02 0.01 0.01 0.02 0.01 0.01 0.01 0.01 0.01 0.01
0.05 0.06 0.07 0.07 0.06 0.05 0.04 0.02 0.03 0.05 0.06 0.06 0.06 0.06 0.06 0.08 0.08 0.09 0.08 0.07 0.06 0.05 0.06 0.05 0.05 0.06 0.05 0.03 0.02 0.02 0.02 0.02 0.01 0.01 0.01 0.01 0.01 0.01
0.07 0.09 0.10 0.09 0.07 0.05 0.04 0.03 0.02 0.02 0.03 0.05 0.07 0.07 0.07 0.08 0.08 0.09 0.09 0.08 0.06 0.06 0.07 0.06 0.05 0.05 0.04 0.03 0.02 0.02 0.02 0.02 0.01 0.01 0.01 0.02 0.02 0.02
0.12 0.14 0.15 0.11 0.08 0.09 0.08 0.06 0.05 0.05 0.06 0.05 0.06 0.07 0.08 0.07 0.07 0.07 0.08 0.08 0.07 0.07 0.08 0.05 0.04 0.05 0.04 0.04 0.03 0.03 0.03 0.02 0.02 0.02 0.02 0.02 0.02 0.03
0.05 0.05 0.05 0.05 0.05 0.05 0.06 0.06 0.06 0.07 0.07 0.07 0.06 0.05 0.05 0.04 0.04 0.05 0.07 0.06 0.05 0.06 0.07 0.05 0.04 0.05 0.04 0.03 0.03 0.03 0.03 0.03 0.02 0.02 0.02 0.02 0.02 0.03
0.03 0.03 0.03 0.03 0.04 0.05 0.05 0.06 0.07 0.07 0.08 0.08 0.07 0.05 0.04 0.04 0.04 0.05 0.06 0.06 0.04 0.04 0.05 0.05 0.05 0.05 0.04 0.02 0.02 0.03 0.04 0.04 0.04 0.03 0.03 0.03 0.03 0.03
0.02 0.02 0.03 0.04 0.05 0.05 0.05 0.06 0.06 0.05 0.06 0.06 0.06 0.06 0.05 0.04 0.06 0.06 0.05 0.05 0.04 0.04 0.04 0.06 0.05 0.06 0.06 0.03 0.02 0.02 0.03 0.03 0.03 0.03 0.04 0.04 0.04 0.04
0.02 0.02 0.02 0.03 0.04 0.05 0.04 0.04 0.05 0.05 0.06 0.06 0.05 0.05 0.05 0.05 0.06 0.06 0.06 0.05 0.04 0.04 0.05 0.07 0.07 0.07 0.08 0.06 0.04 0.02 0.03 0.03 0.04 0.03 0.04 0.07 0.03 0.03
0.02 0.01 0.02 0.03 0.03 0.04 0.03 0.03 0.05 0.05 0.05 0.05 0.05 0.05 0.05 0.05 0.06 0.07 0.07 0.07 0.07 0.06 0.05 0.06 0.08 0.09 0.09 0.08 0.05 0.03 0.03 0.03 0.03 0.03 0.04 0.08 0.05 0.03
0.01 0.01 0.01 0.02 0.02 0.03 0.04 0.05 0.05 0.05 0.05 0.05 0.04 0.05 0.05 0.06 0.07 0.07 0.07 0.06 0.05 0.04 0.04 0.06 0.06 0.07 0.07 0.07 0.07 0.06 0.04 0.03 0.02 0.03 0.05 0.07 0.07 0.04
0.01 0.01 0.01 0.01 0.02 0.02 0.02 0.03 0.04 0.05 0.06 0.06 0.06 0.05 0.04 0.04 0.05 0.07 0.07 0.06 0.05 0.04 0.03 0.04 0.06 0.06 0.07 0.08 0.08 0.06 0.05 0.04 0.03 0.03 0.04 0.06 0.08 0.07
0.01 0.01 0.02 0.02 0.02 0.02 0.02 0.02 0.02 0.03 0.03 0.04 0.05 0.05 0.04 0.05 0.05 0.05 0.05 0.05 0.04 0.03 0.04 0.04 0.05 0.06 0.06 0.06 0.06 0.07 0.06 0.06 0.06 0.06 0.06 0.06 0.08 0.08
0.01 0.02 0.02 0.02 0.01 0.01 0.01 0.02 0.02 0.02 0.02 0.03 0.03 0.03 0.03 0.04 0.04 0.04 0.03 0.03 0.03 0.02 0.03 0.03 0.04 0.05 0.05 0.04 0.04 0.05 0.06 0.06 0.07 0.07 0.07 0.07 0.07 0.07
0.01 0.01 0.01 0.01 0.00 0.00 0.00 0.01 0.01 0.01 0.01 0.01 0.02 0.02 0.02 0.03 0.03 0.03 0.03 0.03 0.03 0.03 0.03 0.03 0.04 0.04 0.04 0.04 0.04 0.05 0.06 0.06 0.06 0.06 0.05 0.06 0.06 0.07
0.01 0.01 0.01 0.00 0.00 0.00 0.00 0.00 0.00 0.00 0.01 0.01 0.01 0.01 0.02 0.02 0.03 0.03 0.03 0.03 0.03 0.03 0.04 0.04 0.04 0.05 0.05 0.06 0.06 0.06 0.07 0.06 0.05 0.05 0.05 0.05 0.05 0.05
0.01 0.01 0.00 0.00 0.00 0.00 0.00 0.00 0.00 0.00 0.00 0.01 0.01 0.01 0.02 0.02 0.02 0.03 0.02 0.02 0.02 0.02 0.03 0.03 0.03 0.04 0.04 0.04 0.04 0.04 0.05 0.05 0.06 0.06 0.06 0.05 0.05 0.04
0.03 0.02 0.01 0.01 0.01 0.01 0.01 0.01 0.01 0.01 0.01 0.01 0.01 0.02 0.02 0.02 0.03 0.03 0.02 0.03 0.02 0.02 0.02 0.03 0.03 0.04 0.04 0.04 0.05 0.05 0.05 0.05 0.07 0.09 0.07 0.06 0.06 0.05
MSLP
1012.38 1012.62 1012.87 1013.14 1013.38 1013.57 1013.69 1013.70 1013.61 1013.42 1013.15 1012.83 1012.49 1012.18 1011.92 1011.75 1011.68 1011.71 1011.83 1012.03 1012.29 1012.58 1012.86 1013.11 1013.33 1013.49 1013.58 1013.63 1013.63 1013.59 1013.55 1013.49 1013.45 1013.43 1013.42 1013.43 1013.45 1013.47
1012.22 1012.45 1012.69 1012.93 1013.14 1013.31 1013.42 1013.44 1013.37 1013.23 1013.02 1012.77 1012.51 1012.26 1012.05 1011.89 1011.81 1011.80 1011.86 1011.98 1012.14 1012.32 1012.51 1012.68 1012.83 1012.94 1013.01 1013.05 1013.05 1013.04 1013.00 1012.97 1012.95 1012.93 1012.92 1012.91 1012.91 1012.90
1012.24 1012.46 1012.67 1012.87 1013.04 1013.17 1013.24 1013.25 1013.20 1013.09 1012.95 1012.78 1012.60 1012.43 1012.29 1012.17 1012.09 1012.05 1012.04 1012.06 1012.11 1012.17 1012.23 1012.30 1012.37 1012.42 1012.46 1012.49 1012.50 1012.51 1012.52 1012.52 1012.52 1012.53 1012.53 1012.52 1012.50 1012.45
1012.46 1012.66 1012.84 1012.99 1013.10 1013.17 1013.19 1013.17 1013.12 1013.04 1012.95 1012.85 1012.76 1012.67 1012.60 1012.53 1012.46 1012.39 1012.32 1012.25 1012.17 1012.11 1012.05 1012.00 1011.96 1011.95 1011.95 1011.96 1011.99 1012.02 1012.07 1012.11 1012.15 1012.19 1012.20 1012.20 1012.16 1012.09
1012.88 1013.06 1013.21 1013.31 1013.35 1013.36 1013.32 1013.25 1013.17 1013.10 1013.04 1012.99 1012.97 1012.96 1012.95 1012.92 1012.87 1012.78 1012.66 1012.50 1012.33 1012.14 1011.95 1011.79 1011.66 1011.57 1011.52 1011.51 1011.54 1011.59 1011.66 1011.73 1011.81 1011.86 1011.90 1011.90 1011.86 1011.77
1013.48 1013.63 1013.74 1013.79 1013.78 1013.72 1013.61 1013.49 1013.37 1013.28 1013.22 1013.20 1013.22 1013.26 1013.30 1013.31 1013.27 1013.18 1013.02 1012.81 1012.55 1012.26 1011.98 1011.71 1011.49 1011.33 1011.22 1011.17 1011.17 1011.22 1011.29 1011.37 1011.46 1011.53 1011.57 1011.57 1011.53 1011.43
1014.19 1014.33 1014.41 1014.42 1014.36 1014.24 1014.07 1013.88 1013.71 1013.57 1013.49 1013.47 1013.50 1013.57 1013.63 1013.66 1013.65 1013.56 1013.39 1013.14 1012.82 1012.48 1012.12 1011.78 1011.48 1011.25 1011.07 1010.97 1010.93 1010.93 1010.98 1011.03 1011.10 1011.15 1011.19 1011.18 1011.14 1011.04
1014.95 1015.08 1015.15 1015.13 1015.03 1014.86 1014.63 1014.38 1014.15 1013.97 1013.84 1013.79 1013.81 1013.87 1013.94 1013.99 1013.98 1013.90 1013.73 1013.48 1013.15 1012.78 1012.38 1011.99 1011.64 1011.34 1011.10 1010.93 1010.81 1010.75 1010.73 1010.73 1010.74 1010.75 1010.74 1010.72 1010.66 1010.57
1015.69 1015.82 1015.88 1015.85 1015.73 1015.52 1015.25 1014.95 1014.67 1014.42 1014.25 1014.15 1014.13 1014.16 1014.22 1014.27 1014.28 1014.21 1014.06 1013.83 1013.51 1013.14 1012.74 1012.33 1011.94 1011.59 1011.29 1011.03 1010.83 1010.68 1010.56 1010.46 1010.39 1010.33 1010.27 1010.20 1010.12 1010.02
1016.34 1016.48 1016.54 1016.51 1016.38 1016.15 1015.86 1015.53 1015.20 1014.91 1014.68 1014.53 1014.47 1014.46 1014.50 1014.53 1014.54 1014.49 1014.36 1014.16 1013.88 1013.53 1013.15 1012.74 1012.34 1011.95 1011.59 1011.26 1010.97 1010.70 1010.47 1010.27 1010.09 1009.93 1009.79 1009.67 1009.56 1009.44
1016.87 1017.00 1017.06 1017.03 1016.91 1016.68 1016.39 1016.05 1015.70 1015.37 1015.11 1014.92 1014.81 1014.76 1014.76 1014.77 1014.77 1014.73 1014.63 1014.46 1014.21 1013.91 1013.55 1013.17 1012.77 1012.36 1011.95 1011.56 1011.18 1010.82 1010.47 1010.16 1009.87 1009.61 1009.39 1009.19 1009.03 1008.88
1017.25 1017.37 1017.43 1017.41 1017.29 1017.08 1016.80 1016.47 1016.12 1015.79 1015.51 1015.29 1015.14 1015.05 1015.01 1014.99 1014.98 1014.93 1014.84 1014.69 1014.48 1014.21 1013.89 1013.53 1013.14 1012.73 1012.30 1011.86 1011.42 1010.98 1010.54 1010.13 1009.74 1009.39 1009.09 1008.82 1008.60 1008.41
1017.53 1017.61 1017.65 1017.63 1017.52 1017.33 1017.07 1016.77 1016.44 1016.13 1015.85 1015.61 1015.44 1015.32 1015.24 1015.19 1015.14 1015.08 1014.98 1014.83 1014.64 1014.40 1014.11 1013.78 1013.41 1013.01 1012.58 1012.12 1011.64 1011.15 1010.66 1010.18 1009.72 1009.30 1008.92 1008.60 1008.32 1008.08
1017.72 1017.75 1017.76 1017.71 1017.60 1017.43 1017.20 1016.94 1016.65 1016.37 1016.11 1015.88 1015.69 1015.55 1015.44 1015.35 1015.26 1015.16 1015.03 1014.87 1014.68 1014.44 1014.17 1013.86 1013.52 1013.14 1012.72 1012.28 1011.80 1011.30 1010.79 1010.28 1009.78 1009.32 1008.89 1008.51 1008.18 1007.89
1017.86 1017.83 1017.78 1017.70 1017.58 1017.42 1017.22 1016.99 1016.75 1016.51 1016.28 1016.07 1015.89 1015.73 1015.59 1015.46 1015.32 1015.17 1015.00 1014.81 1014.59 1014.35 1014.08 1013.78 1013.46 1013.11 1012.73 1012.31 1011.86 1011.39 1010.89 1010.39 1009.89 1009.40 1008.95 1008.54 1008.16 1007.83
1017.98 1017.87 1017.76 1017.63 1017.48 1017.32 1017.14 1016.94 1016.74 1016.55 1016.36 1016.18 1016.00 1015.84 1015.68 1015.51 1015.32 1015.12 1014.90 1014.66 1014.41 1014.14 1013.86 1013.56 1013.26 1012.94 1012.59 1012.22 1011.82 1011.39 1010.94 1010.46 1009.98 1009.51 1009.05 1008.61 1008.20 1007.83
1018.08 1017.90 1017.71 1017.53 1017.35 1017.17 1017.00 1016.83 1016.66 1016.50 1016.35 1016.20 1016.04 1015.87 1015.69 1015.49 1015.26 1015.01 1014.74 1014.45 1014.15 1013.85 1013.55 1013.25 1012.95 1012.65 1012.35 1012.02 1011.67 1011.30 1010.89 1010.46 1010.02 1009.56 1009.10 1008.65 1008.22 1007.81
1018.14 1017.89 1017.65 1017.41 1017.20 1017.00 1016.83 1016.67 1016.52 1016.39 1016.26 1016.13 1015.99 1015.83 1015.63 1015.41 1015.15 1014.86 1014.54 1014.21 1013.86 1013.53 1013.20 1012.89 1012.59 1012.31 1012.03 1011.74 1011.43 1011.10 1010.74 1010.35 1009.93 1009.50 1009.05 1008.59 1008.14 1007.70
1018.13 1017.84 1017.55 1017.28 1017.03 1016.82 1016.63 1016.47 1016.33 1016.21 1016.10 1015.98 1015.85 1015.69 1015.50 1015.26 1014.98 1014.66 1014.31 1013.95 1013.58 1013.21 1012.86 1012.53 1012.22 1011.94 1011.66 1011.39 1011.11 1010.81 1010.48 1010.11 1009.71 1009.29 1008.84 1008.38 1007.91 1007.45
1018.01 1017.70 1017.40 1017.11 1016.84 1016.61 1016.41 1016.24 1016.10 1015.98 1015.87 1015.76 1015.63 1015.48 1015.28 1015.04 1014.75 1014.43 1014.06 1013.68 1013.29 1012.90 1012.53 1012.19 1011.86 1011.57 1011.28 1011.01 1010.73 1010.43 1010.10 1009.75 1009.36 1008.93 1008.49 1008.02 1007.55 1007.08
1017.77 1017.48 1017.18 1016.89 1016.62 1016.37 1016.16 1015.98 1015.83 1015.70 1015.58 1015.47 1015.34 1015.18 1014.99 1014.75 1014.47 1014.14 1013.78 1013.40 1013.00 1012.61 1012.23 1011.86 1011.52 1011.20 1010.90 1010.60 1010.30 1009.99 1009.65 1009.29 1008.89 1008.46 1008.01 1007.54 1007.07 1006.60
1017.43 1017.16 1016.89 1016.61 1016.34 1016.10 1015.88 1015.69 1015.52 1015.38 1015.25 1015.12 1014.98 1014.82 1014.63 1014.40 1014.13 1013.81 1013.46 1013.09 1012.70 1012.31 1011.92 1011.55 1011.19 1010.84 1010.51 1010.18 1009.85 1009.51 1009.15 1008.77 1008.36 1007.93 1007.47 1007.01 1006.55 1006.09
1016.99 1016.77 1016.53 1016.28 1016.03 1015.80 1015.58 1015.38 1015.21 1015.05 1014.90 1014.75 1014.60 1014.43 1014.24 1014.01 1013.74 1013.44 1013.11 1012.75 1012.38 1011.99 1011.61 1011.23 1010.85 1010.48 1010.12 1009.76 1009.40 1009.03 1008.64 1008.24 1007.82 1007.39 1006.95 1006.50 1006.05 1005.62
Thickness
5758 5757 5755 5755 5754 5754 5751 5747 5737 5730 5731 5737 5738 5741 5739 5736 5733 5730 5729 5726 5724 5722 5720 5718 5716 5714 5712 5711 5709 5708 5707 5706 5705 5703 5702 5701 5700 5699
5755 5753 5751 5751 5750 5749 5747 5745 5741 5735 5729 5733 5734 5735 5734 5733 5729 5726 5725 5723 5721 5719 5718 5716 5714 5711 5709 5708 5706 5704 5703 5702 5701 5699 5698 5697 5696 5695
5751 5749 5747 5747 5744 5743 5742 5740 5738 5734 5726 5728 5731 5731 5729 5726 5725 5723 5721 5719 5717 5716 5715 5713 5711 5709 5706 5704 5703 5701 5700 5698 5696 5695 5694 5693 5693 5692
5747 5745 5743 5743 5740 5738 5736 5734 5733 5731 5725 5721 5723 5724 5723 5722 5720 5718 5717 5716 5715 5714 5712 5710 5708 5706 5704 5701 5699 5697 5696 5694 5692 5691 5690 5689 5688 5688
5744 5741 5739 5737 5734 5732 5730 5729 5727 5727 5724 5719 5717 5718 5717 5717 5715 5713 5713 5712 5712 5711 5709 5707 5705 5703 5700 5698 5696 5694 5692 5690 5689 5687 5686 5684 5684 5683
5741 5738 5736 5733 5730 5727 5726 5723 5721 5719 5717 5714 5712 5711 5710 5711 5709 5706 5705 5705 5706 5707 5706 5703 5701 5699 5696 5694 5692 5690 5688 5687 5685 5683 5681 5680 5679 5677
5737 5734 5731 5729 5725 5723 5720 5717 5715 5712 5709 5707 5705 5704 5703 5702 5700 5701 5699 5700 5700 5701 5700 5699 5697 5694 5692 5690 5688 5686 5684 5682 5681 5679 5677 5675 5674 5673
5731 5729 5727 5724 5721 5718 5715 5713 5710 5707 5703 5701 5699 5697 5696 5697 5696 5695 5693 5691 5689 5695 5693 5692 5693 5691 5690 5688 5685 5683 5680 5678 5676 5674 5673 5671 5669 5668
5727 5724 5722 5721 5717 5714 5711 5709 5706 5704 5701 5698 5694 5693 5692 5693 5691 5689 5687 5685 5685 5689 5687 5685 5688 5686 5687 5686 5683 5680 5677 5674 5672 5670 5668 5666 5664 5663
5724 5721 5717 5714 5712 5708 5707 5705 5702 5701 5699 5696 5694 5692 5692 5690 5688 5686 5684 5683 5684 5685 5684 5678 5681 5681 5683 5680 5678 5675 5673 5670 5667 5665 5663 5661 5659 5658
5719 5716 5713 5709 5706 5703 5700 5698 5697 5696 5696 5694 5692 5690 5688 5686 5684 5680 5678 5675 5674 5676 5678 5673 5674 5674 5674 5673 5671 5669 5667 5664 5662 5659 5657 5655 5653 5651
5714 5711 5707 5704 5700 5698 5695 5692 5690 5690 5689 5689 5686 5685 5683 5682 5679 5675 5672 5668 5667 5667 5671 5668 5667 5665 5663 5665 5664 5662 5659 5658 5656 5653 5651 5649 5647 5644
5708 5705 5703 5699 5695 5693 5690 5688 5686 5684 5683 5682 5681 5680 5679 5677 5674 5672 5669 5666 5662 5661 5665 5662 5659 5657 5654 5654 5656 5655 5653 5652 5649 5648 5645 5643 5641 5639
5701 5700 5696 5692 5689 5686 5684 5683 5681 5678 5677 5676 5675 5673 5671 5670 5669 5667 5665 5663 5661 5659 5659 5657 5652 5649 5646 5644 5645 5647 5646 5645 5644 5642 5640 5638 5635 5633
5694 5692 5688 5685 5682 5680 5678 5677 5674 5672 5670 5668 5667 5666 5665 5664 5663 5661 5660 5658 5655 5654 5653 5651 5648 5645 5641 5638 5637 5637 5636 5637 5637 5635 5633 5631 5629 5627
5684 5683 5681 5678 5676 5674 5673 5671 5668 5666 5664 5661 5660 5660 5660 5657 5655 5653 5651 5649 5646 5646 5646 5644 5642 5639 5635 5633 5631 5630 5629 5629 5629 5628 5627 5625 5624 5623
5676 5675 5674 5672 5669 5668 5667 5666 5664 5661 5657 5655 5653 5651 5650 5648 5647 5645 5643 5641 5638 5636 5636 5636 5635 5632 5630 5627 5623 5623 5622 5621 5621 5621 5619 5617 5617 5617
5668 5667 5666 5665 5662 5660 5659 5657 5655 5653 5650 5647 5644 5642 5640 5638 5637 5636 5634 5631 5628 5627 5626 5625 5623 5621 5619 5619 5617 5615 5614 5614 5614 5613 5612 5610 5610 5611
5661 5660 5659 5657 5655 5652 5650 5648 5646 5644 5641 5638 5635 5633 5631 5629 5627 5625 5623 5620 5618 5616 5615 5614 5612 5609 5605 5605 5609 5608 5606 5606 5606 5605 5604 5603 5603 5604
5654 5653 5652 5650 5647 5644 5642 5639 5636 5634 5631 5629 5626 5624 5621 5619 5617 5614 5612 5609 5607 5605 5604 5603 5601 5599 5596 5596 5597 5599 5599 5598 5597 5596 5596 5596 5595 5595
5648 5646 5644 5642 5639 5636 5633 5629 5626 5623 5621 5618 5616 5613 5610 5608 5605 5603 5601 5598 5595 5594 5592 5591 5591 5589 5588 5587 5586 5588 5590 5590 5590 5588 5587 5586 5585 5585
5640 5638 5635 5632 5629 5626 5623 5620 5617 5614 5611 5608 5605 5603 5600 5597 5594 5592 5590 5587 5585 5583 5582 5581 5581 5579 5577 5574 5575 5576 5578 5579 5580 5579 5579 5578 5576 5576
5630 5628 5625 5622 5619 5615 5612 5610 5607 5604 5601 5597 5594 5592 5589 5586 5584 5581 5579 5577 5575 5573 5571 5569 5569 5567 5565 5564 5563 5563 5565 5566 5567 5567 5568 5569 5569 5569